Wetbulb
54.69 54.54 54.30 53.69 53.46 54.14 53.52 53.95 51.40 53.27 53.66 56.51 58.66 59.55 60.99 62.79 65.26 66.30 66.84 68.78 70.36 71.73 73.14 73.73 74.30 74.61 75.05 74.91 74.95 75.52 76.24 75.87 76.36 77.24 77.73 77.98 77.96 78.48 78.63 79.03 79.19 79.11 79.40 78.74
52.90 54.61 54.65 53.02 54.38 54.54 54.42 54.51 54.54 54.92 54.54 59.59 60.60 61.37 61.77 63.64 65.86 66.75 67.97 69.39 70.81 71.80 73.02 73.60 74.49 74.72 75.18 75.61 75.74 76.46 75.95 75.91 77.08 77.68 77.86 78.07 78.34 78.68 78.83 79.04 79.25 78.62 77.71 77.50
49.91 53.46 53.27 50.03 53.72 54.44 55.15 56.35 55.57 52.56 56.54 60.17 59.65 60.04 61.94 63.42 65.22 66.24 67.36 68.54 69.90 71.83 72.99 74.10 74.38 75.16 74.88 75.57 76.31 76.57 76.09 76.41 77.17 77.68 77.77 78.25 78.70 78.99 78.83 78.53 78.09 77.78 75.93 74.09
48.12 50.44 43.35 52.25 55.89 55.59 53.95 54.82 56.20 56.64 57.90 58.87 59.86 61.45 63.19 62.92 62.72 63.37 65.46 67.60 69.14 70.27 73.60 74.49 75.30 75.22 75.18 75.46 75.66 75.68 75.88 76.21 76.93 77.45 77.66 78.41 78.88 78.71 78.37 77.78 77.42 75.40 73.59 73.07
44.86 44.87 47.72 48.92 51.27 52.48 53.46 53.63 57.98 57.27 58.18 59.53 61.05 62.51 63.13 63.03 63.21 63.49 64.91 67.46 69.73 71.22 74.36 74.76 75.51 75.81 75.00 74.85 75.46 75.25 75.39 76.26 77.24 77.70 77.97 78.40 77.94 77.54 77.37 76.41 74.46 72.75 73.07 72.44
47.17 43.14 41.52 50.68 55.55 57.97 57.12 49.12 58.68 58.36 58.07 58.68 60.22 56.50 60.63 63.03 63.39 63.60 64.78 66.08 68.63 71.18 72.98 74.89 75.64 75.78 75.13 74.89 75.36 75.14 76.31 77.01 77.98 78.46 78.37 77.86 77.45 77.22 76.32 73.95 74.24 73.25 71.97 69.99
46.69 44.89 48.09 52.89 55.23 56.53 46.59 49.56 56.77 57.92 58.42 58.82 58.01 59.74 61.71 62.86 63.02 64.25 64.36 64.55 67.62 70.33 71.14 73.24 75.90 74.70 74.79 75.08 75.12 76.35 77.10 77.43 77.70 77.63 77.30 77.35 76.17 75.37 73.66 73.77 72.36 70.45 67.39 67.18
47.39 44.92 42.67 55.89 53.99 49.54 53.25 56.49 57.06 57.74 58.47 58.60 59.66 60.02 60.75 61.65 62.10 62.75 62.95 63.95 65.73 67.60 70.79 73.29 74.60 75.38 74.80 75.11 76.51 76.52 76.37 76.33 75.06 74.74 74.79 73.72 72.78 72.90 73.27 72.26 68.76 66.46 65.97 65.92
49.34 49.44 56.00 57.00 55.43 57.49 57.35 56.50 56.82 57.51 59.14 59.32 58.53 58.94 60.32 60.91 61.75 62.23 62.80 63.69 65.31 66.52 67.95 72.40 73.10 73.50 72.98 76.17 76.23 76.36 74.54 73.82 73.20 72.80 73.00 73.57 72.82 72.05 71.23 71.97 68.85 67.30 64.96 65.65
50.48 52.77 54.14 55.82 56.58 56.80 56.42 56.53 56.93 57.33 57.42 58.19 57.92 58.33 58.61 60.31 61.10 61.96 62.82 63.19 65.29 65.64 66.74 68.36 72.31 72.33 73.57 74.09 74.18 73.90 72.11 70.94 70.97 68.88 70.39 71.78 71.34 71.00 69.92 68.98 67.87 67.02 65.39 65.65
49.98 52.55 53.67 54.34 55.12 55.66 55.70 56.38 56.11 56.63 57.02 57.44 57.88 57.84 58.50 59.09 61.13 62.12 62.58 63.47 64.78 64.76 65.84 67.61 70.49 71.10 71.52 72.19 73.56 70.99 69.34 69.89 69.52 66.27 61.52 62.21 59.66 62.30 62.95 56.48 55.70 63.90 62.53 61.49
44.90 50.76 50.13 51.59 54.85 55.97 55.14 55.07 56.34 56.02 56.02 57.46 57.85 57.66 58.82 59.13 61.22 61.86 62.24 63.29 63.59 64.84 65.38 66.68 67.66 69.34 69.44 69.91 70.64 67.84 67.63 69.50 67.01 64.12 63.67 62.46 58.65 53.30 47.96 47.20 44.92 43.29 43.27 50.99
49.55 52.22 53.28 54.62 55.62 56.31 55.60 56.58 57.48 57.52 57.99 57.56 58.72 59.07 59.19 59.32 60.64 59.82 62.53 62.97 63.37 64.29 65.24 65.73 66.34 66.67 67.81 67.77 68.44 67.03 65.97 66.96 66.29 61.44 63.30 61.95 56.86 55.91 52.52 47.84 45.36 43.85 44.06 43.46
54.51 53.75 52.45 54.23 53.29 54.48 56.36 56.59 56.29 57.41 58.14 58.66 58.74 59.99 60.16 59.55 60.32 61.05 61.68 62.82 64.57 65.49 65.65 66.09 65.02 64.00 66.00 66.71 65.99 65.41 65.00 58.16 64.41 64.13 62.31 61.15 60.13 58.86 56.23 55.12 54.27 52.32 45.32 46.95
53.47 54.68 54.70 55.54 55.76 55.68 56.57 56.58 55.76 55.63 56.62 57.47 59.12 59.59 60.54 60.03 60.83 61.74 62.90 64.12 65.22 65.07 63.61 64.43 63.11 62.25 62.99 62.90 64.47 63.81 62.79 62.95 65.71 65.49 63.73 60.38 60.65 60.56 59.29 59.03 58.11 56.91 54.92 48.64
54.06 54.73 54.51 53.47 53.58 54.82 54.38 55.32 55.27 55.59 56.69 56.93 57.61 58.70 60.67 61.68 62.00 62.36 63.49 64.95 63.55 62.82 63.55 62.12 61.16 62.00 61.10 61.24 63.08 62.81 63.92 61.26 61.24 62.25 61.92 60.57 59.61 58.59 57.37 55.92 54.20 52.50 52.58 52.46
51.69 51.67 50.51 49.48 52.56 52.64 54.25 53.18 54.07 54.51 55.67 57.20 57.65 58.67 60.06 61.01 61.22 61.82 62.97 63.66 64.68 64.65 63.43 62.22 59.55 60.36 61.24 61.59 62.09 61.15 60.79 59.80 59.82 62.18 62.12 61.13 59.69 57.33 55.02 53.13 52.84 53.27 50.75 47.13
54.22 53.23 53.61 52.45 52.06 53.49 52.39 52.69 54.95 55.41 54.70 57.08 58.57 59.24 59.41 60.02 60.36 61.56 62.18 62.36 61.58 60.14 58.88 59.95 59.64 59.97 61.46 62.15 61.61 62.62 61.04 60.24 59.79 58.31 58.89 57.44 54.88 54.38 52.77 52.16 51.93 52.60 52.14 47.58
52.51 51.14 51.75 52.71 54.37 52.97 52.20 53.10 53.23 55.28 56.14 56.80 57.74 58.13 59.70 60.55 61.38 61.81 62.16 62.31 59.79 58.71 58.39 58.93 58.66 59.33 59.20 57.74 58.83 60.82 58.81 58.57 57.79 56.30 53.18 50.10 50.65 50.96 51.03 51.00 51.97 52.18 51.99 52.49
51.89 52.23 52.13 52.16 53.28 53.51 52.91 52.93 54.40 54.15 56.56 56.40 57.32 58.72 59.52 60.59 61.45 61.42 62.65 62.19 61.74 62.75 62.34 60.92 58.47 54.93 56.39 55.97 55.42 53.01 52.94 52.50 50.80 49.11 50.00 50.16 50.64 51.39 50.72 49.08 51.56 51.90 51.12 49.98
50.84 51.62 52.47 51.97 51.77 51.85 52.86 53.46 54.84 54.77 56.43 57.26 58.41 59.03 59.72 60.53 61.22 61.67 61.05 59.06 59.10 59.50 60.90 56.49 55.61 53.28 52.86 53.80 54.48 53.21 53.98 53.57 52.18 50.02 50.28 50.34 49.41 50.55 50.79 50.77 50.54 50.20 48.74 47.53
51.16 52.12 51.89 51.71 50.89 52.46 56.35 57.88 55.54 55.41 55.79 57.24 58.81 60.08 60.19 60.40 61.19 61.71 62.28 58.14 54.48 52.61 53.26 52.40 51.58 51.95 51.72 53.09 53.05 53.82 53.93 52.35 52.74 52.33 51.93 51.99 52.17 51.50 50.59 49.67 47.92 47.05 46.94 47.83
51.83 51.72 52.37 51.32 51.64 52.31 55.50 56.04 57.14 57.15 56.85 56.93 57.85 59.06 60.19 61.65 62.06 55.30 52.67 54.77 54.45 52.45 52.71 51.58 50.55 49.81 50.48 50.96 52.33 51.30 50.22 50.61 51.51 51.61 51.77 52.52 52.34 52.37 51.53 50.57 49.67 49.15 48.40 46.99
51.97 51.32 51.73 52.47 52.65 51.71 53.33 55.89 57.70 57.50 56.55 55.93 56.43 58.83 59.21 59.10 56.35 56.85 53.75 51.30 50.29 52.85 51.55 50.64 49.16 48.77 49.14 50.43 50.64 50.43 50.75 51.43 51.03 51.32 51.76 47.98 52.29 52.10 51.32 51.32 50.41 50.21 49.09 48.05
52.85 51.65 51.58 52.51 51.60 50.83 52.24 53.33 54.35 54.34 55.11 55.10 54.90 54.47 57.31 57.67 53.76 51.77 52.10 51.15 49.45 51.46 50.52 48.58 48.65 48.76 52.11 52.42 51.89 51.67 51.00 50.39 49.61 49.63 49.40 49.66 49.47 50.86 51.02 50.93 50.56 50.37 50.41 51.26
53.97 53.67 54.18 53.18 53.88 53.28 52.71 53.18 52.57 53.20 53.59 53.17 53.24 52.20 52.31 53.42 52.31 52.20 52.17 51.37 50.61 48.00 48.91 50.09 52.51 53.79 53.75 52.95 52.92 52.49 52.14 50.88 52.04 52.58 51.92 52.49 51.85 51.45 51.58 51.46 50.63 51.00 51.36 51.70
54.80 49.68 53.36 53.27 54.39 53.85 55.49 55.44 54.12 51.93 53.10 53.67 52.74 53.08 51.97 51.54 50.99 51.03 49.95 50.74 50.27 49.43 50.35 52.72 53.37 54.04 55.17 54.81 54.18 53.55 52.90 54.07 51.23 54.01 53.75 53.40 53.28 52.71 52.10 51.67 51.55 51.54 51.72 51.70
MSLP
1002.53 1002.25 1002.43 1002.29 1002.12 1001.94 1001.73 1001.67 1001.26 1000.75 1000.63 1000.93 1001.42 1002.16 1002.51 1002.77 1002.80 1002.65 1002.45 1001.93 1001.74 1001.79 1001.85 1002.15 1002.42 1002.85 1003.29 1003.85 1004.13 1004.76 1005.66 1006.24 1006.67 1007.23 1007.72 1008.23 1008.65 1009.10 1009.51 1009.90 1010.13 1010.49 1010.76 1011.12
1003.65 1003.23 1003.00 1002.57 1002.45 1002.28 1002.11 1002.00 1001.71 1001.74 1001.40 1001.61 1003.01 1003.14 1003.28 1003.59 1003.61 1003.32 1003.15 1002.94 1002.68 1002.23 1002.11 1002.25 1002.59 1002.77 1003.06 1003.38 1003.86 1004.42 1005.14 1005.75 1006.30 1006.80 1007.28 1007.78 1008.12 1008.61 1009.14 1009.59 1010.04 1010.68 1011.02 1011.13
1003.88 1003.70 1003.17 1002.79 1002.48 1002.14 1001.99 1002.07 1001.85 1002.08 1002.29 1003.49 1003.49 1004.06 1004.38 1004.58 1004.52 1004.31 1003.99 1003.62 1003.26 1002.90 1002.30 1002.13 1002.40 1002.86 1002.95 1003.38 1003.82 1004.19 1004.75 1005.33 1005.82 1006.38 1006.86 1007.36 1007.80 1008.30 1008.83 1009.44 1010.09 1010.47 1011.23 1011.85
1004.95 1004.88 1003.21 1002.55 1002.56 1002.68 1002.61 1002.75 1003.00 1003.58 1004.21 1004.74 1004.82 1004.73 1004.97 1005.51 1005.58 1005.29 1004.87 1004.45 1003.83 1003.15 1002.60 1002.15 1002.04 1002.50 1002.99 1002.91 1003.47 1004.14 1004.49 1004.77 1005.28 1005.84 1006.40 1006.96 1007.50 1008.07 1008.70 1009.39 1009.97 1010.82 1011.55 1012.01
1005.53 1004.60 1003.65 1003.07 1003.20 1003.59 1003.56 1003.56 1004.23 1004.59 1005.24 1005.46 1005.60 1005.04 1005.29 1006.01 1006.19 1006.01 1005.74 1004.98 1004.15 1003.39 1002.66 1002.45 1002.26 1002.47 1002.79 1002.80 1003.04 1003.53 1004.01 1004.54 1004.83 1005.34 1005.92 1006.66 1007.32 1008.01 1008.72 1009.38 1010.35 1011.07 1011.65 1012.16
1006.09 1005.05 1003.88 1003.68 1004.82 1005.24 1005.39 1005.07 1005.85 1006.34 1006.37 1006.57 1006.50 1005.22 1005.15 1006.46 1006.32 1006.24 1006.13 1005.46 1004.56 1003.78 1003.11 1002.60 1002.70 1002.72 1002.89 1002.72 1002.87 1003.31 1003.46 1004.56 1005.21 1005.78 1005.98 1006.63 1007.35 1008.19 1008.89 1009.93 1010.32 1010.80 1011.71 1012.47
1006.19 1005.52 1004.67 1004.73 1005.73 1006.20 1006.40 1007.09 1007.59 1007.57 1007.48 1007.40 1007.26 1007.41 1007.24 1006.91 1006.70 1006.53 1006.21 1005.66 1005.11 1004.23 1003.58 1003.26 1003.13 1003.17 1003.00 1002.87 1003.03 1003.18 1003.86 1004.40 1005.34 1005.82 1006.79 1006.97 1007.77 1008.54 1009.32 1009.55 1010.47 1011.27 1012.32 1012.85
1006.29 1005.93 1005.55 1006.28 1006.80 1007.30 1008.37 1008.45 1008.43 1008.19 1008.03 1007.99 1007.99 1007.78 1007.43 1007.08 1006.80 1006.52 1006.19 1005.75 1005.31 1004.73 1004.03 1003.53 1003.54 1003.60 1003.24 1002.80 1003.30 1003.64 1004.63 1004.29 1006.19 1005.58 1006.60 1008.35 1008.33 1008.91 1009.36 1009.91 1010.68 1011.84 1012.54 1012.83
1006.93 1006.38 1007.73 1008.20 1008.59 1008.86 1008.98 1009.06 1009.03 1008.95 1008.48 1008.31 1008.12 1007.75 1007.50 1007.16 1006.80 1006.52 1006.35 1006.09 1005.62 1005.08 1004.76 1004.15 1004.26 1004.27 1003.87 1003.45 1003.78 1004.29 1004.67 1005.40 1006.11 1005.81 1006.15 1008.68 1009.05 1009.55 1010.24 1010.20 1010.67 1011.29 1012.15 1012.53
1008.49 1007.71 1007.78 1008.23 1008.92 1009.06 1009.17 1009.20 1009.45 1009.19 1008.84 1008.55 1008.21 1008.01 1007.63 1007.20 1006.84 1006.61 1006.41 1006.18 1005.89 1005.50 1005.13 1004.82 1004.57 1004.62 1004.35 1004.36 1004.71 1005.18 1005.40 1005.71 1006.10 1006.59 1006.68 1008.85 1009.21 1009.12 1010.05 1010.53 1010.59 1010.65 1011.42 1011.77
1009.20 1009.09 1008.90 1008.76 1008.83 1008.94 1009.42 1009.45 1009.25 1008.98 1008.55 1008.10 1008.05 1007.77 1007.53 1007.15 1006.76 1006.54 1006.36 1006.18 1005.95 1005.91 1005.46 1005.09 1004.83 1004.78 1004.80 1004.64 1004.80 1005.39 1005.89 1006.09 1006.49 1007.17 1007.71 1008.33 1010.84 1010.59 1011.09 1013.10 1013.05 1012.00 1012.33 1012.61
1009.73 1010.12 1010.05 1009.64 1009.47 1009.41 1009.30 1009.18 1008.95 1008.66 1008.26 1008.02 1007.71 1007.30 1007.08 1006.74 1006.46 1006.27 1006.07 1005.87 1005.66 1005.44 1005.36 1005.15 1005.01 1005.08 1005.04 1004.97 1004.89 1005.45 1005.94 1006.32 1006.80 1007.71 1007.78 1009.27 1010.40 1011.10 1012.09 1012.95 1013.44 1013.51 1014.43 1014.20
1010.71 1010.75 1010.34 1009.92 1009.72 1009.51 1009.05 1008.75 1008.37 1008.13 1007.89 1007.51 1007.25 1006.93 1006.56 1006.17 1006.07 1005.79 1005.75 1005.52 1005.04 1004.88 1004.84 1004.97 1005.15 1005.28 1005.26 1005.20 1004.95 1005.37 1005.81 1006.19 1006.93 1007.66 1007.88 1008.74 1010.26 1010.50 1010.18 1013.36 1012.49 1013.09 1014.66 1014.87
1011.20 1011.17 1010.51 1009.87 1009.15 1009.13 1008.52 1008.37 1008.28 1007.86 1007.49 1007.11 1006.71 1006.25 1005.94 1005.60 1005.29 1005.09 1004.85 1004.63 1004.40 1004.46 1004.62 1004.86 1005.25 1005.30 1005.30 1005.26 1005.06 1005.24 1005.60 1006.31 1006.84 1007.55 1008.08 1008.72 1009.46 1010.28 1010.67 1010.68 1012.03 1013.69 1014.38 1014.36
1011.05 1010.79 1010.20 1009.72 1009.30 1008.91 1008.44 1007.82 1007.38 1007.00 1006.72 1006.38 1006.04 1005.54 1005.12 1004.75 1004.40 1004.24 1004.09 1003.95 1003.81 1004.12 1004.52 1004.66 1004.77 1004.99 1005.18 1005.21 1004.99 1005.15 1005.70 1006.32 1006.83 1007.76 1008.28 1008.84 1009.20 1010.16 1010.68 1011.00 1011.88 1012.93 1013.29 1014.57
1010.78 1010.33 1009.80 1009.53 1008.98 1008.62 1008.16 1007.66 1006.88 1006.30 1005.93 1005.61 1005.18 1004.76 1004.38 1004.15 1003.84 1003.67 1003.46 1003.38 1003.75 1003.77 1004.15 1004.58 1004.69 1004.84 1005.14 1005.20 1005.12 1005.23 1005.52 1005.73 1006.84 1007.88 1008.69 1009.24 1009.89 1010.29 1010.87 1011.81 1012.56 1013.28 1013.09 1013.72
1010.54 1010.21 1010.16 1009.94 1009.27 1008.75 1008.01 1007.83 1007.35 1006.39 1005.92 1005.16 1004.48 1004.21 1003.84 1003.47 1003.22 1003.04 1002.91 1003.29 1003.50 1003.68 1004.02 1004.52 1004.78 1005.01 1005.12 1005.16 1005.23 1005.35 1005.51 1005.40 1006.02 1007.40 1008.34 1009.21 1009.85 1010.45 1011.36 1011.68 1012.45 1013.33 1014.00 1014.22
1010.89 1010.76 1010.35 1009.72 1009.18 1008.23 1007.85 1007.42 1006.57 1005.72 1005.33 1004.87 1004.19 1003.56 1003.22 1002.99 1002.69 1002.64 1002.62 1003.19 1003.77 1004.35 1004.54 1004.72 1004.92 1005.02 1004.94 1005.13 1005.38 1005.64 1005.16 1005.06 1006.49 1008.01 1008.50 1009.84 1010.57 1010.97 1011.72 1012.06 1012.47 1012.88 1013.00 1015.03
1010.97 1010.64 1009.97 1009.25 1008.43 1007.89 1007.23 1006.47 1005.83 1005.09 1004.43 1004.03 1003.56 1002.79 1002.41 1002.23 1002.11 1002.25 1002.23 1002.94 1003.65 1004.12 1004.57 1004.93 1005.11 1005.33 1005.18 1005.70 1005.62 1005.91 1006.94 1007.50 1007.10 1008.83 1009.42 1010.39 1010.97 1011.61 1011.96 1012.37 1012.47 1012.90 1013.37 1012.95
1010.59 1010.00 1009.33 1008.61 1007.91 1007.15 1006.01 1005.20 1004.46 1003.80 1003.25 1002.93 1002.73 1002.10 1001.69 1001.66 1001.54 1001.54 1001.92 1002.53 1003.06 1003.62 1004.34 1004.92 1005.61 1006.13 1006.56 1005.94 1007.02 1007.25 1007.66 1008.17 1009.11 1009.83 1009.81 1010.60 1011.31 1011.83 1012.44 1012.65 1012.74 1013.23 1013.72 1014.69
1010.27 1009.60 1008.85 1008.14 1007.19 1006.11 1005.02 1004.11 1003.20 1002.49 1002.22 1002.02 1001.76 1001.32 1001.07 1000.84 1000.78 1001.02 1001.80 1002.59 1003.32 1003.84 1004.43 1005.33 1005.92 1006.80 1007.34 1007.66 1007.34 1007.56 1008.06 1008.46 1008.85 1009.54 1010.12 1010.95 1011.93 1012.46 1012.54 1012.59 1012.91 1014.00 1015.06 1015.57
1010.24 1009.23 1008.66 1007.72 1006.69 1005.36 1004.15 1003.14 1002.74 1002.42 1002.12 1001.79 1001.28 1000.76 1000.50 1000.43 1000.40 1000.84 1001.47 1002.62 1003.89 1004.35 1005.04 1005.72 1006.58 1007.10 1007.51 1007.67 1007.74 1007.85 1008.31 1008.95 1009.54 1010.17 1010.69 1011.05 1011.24 1011.77 1012.56 1013.37 1014.23 1015.03 1015.51 1016.07
1010.22 1009.49 1008.70 1006.96 1006.20 1005.62 1004.59 1003.90 1003.08 1002.43 1002.17 1001.87 1001.35 1000.70 1000.19 1000.00 1000.44 1001.53 1002.49 1003.46 1004.15 1004.94 1005.59 1006.43 1006.53 1007.42 1007.62 1008.01 1008.13 1008.77 1009.23 1009.75 1009.95 1010.39 1010.83 1011.19 1011.34 1011.70 1012.85 1013.63 1014.12 1015.22 1015.67 1016.31
1010.03 1009.44 1008.72 1007.88 1006.91 1006.13 1005.41 1004.56 1003.61 1002.75 1002.55 1002.17 1001.61 1000.98 1000.54 1000.68 1001.50 1002.07 1002.89 1003.81 1004.51 1004.96 1005.80 1006.83 1006.92 1007.99 1008.69 1008.73 1008.68 1009.19 1009.53 1009.81 1010.18 1010.49 1011.26 1011.79 1011.97 1012.49 1013.10 1013.79 1014.42 1015.07 1015.68 1016.02
1009.75 1009.33 1008.76 1008.04 1007.37 1006.71 1006.04 1005.26 1004.40 1003.74 1003.05 1002.48 1001.96 1001.62 1000.97 1001.42 1002.06 1003.25 1003.74 1004.52 1005.29 1005.60 1006.44 1007.43 1007.97 1008.36 1008.38 1008.29 1008.85 1009.39 1009.90 1010.47 1010.98 1011.35 1011.82 1012.46 1012.81 1012.74 1013.42 1013.95 1014.56 1015.08 1015.30 1015.15
1009.38 1008.93 1008.55 1008.11 1007.65 1007.23 1006.70 1005.92 1005.08 1004.79 1004.14 1003.32 1003.05 1002.69 1002.41 1002.35 1003.15 1004.14 1004.85 1005.55 1006.25 1006.81 1007.16 1007.96 1007.96 1007.77 1008.28 1008.83 1009.27 1009.64 1009.92 1010.71 1010.77 1011.06 1011.75 1012.18 1012.51 1012.69 1013.25 1013.82 1014.46 1014.59 1014.62 1014.85
1008.79 1008.63 1007.88 1007.38 1007.06 1007.18 1006.67 1006.39 1005.81 1005.73 1005.27 1004.60 1004.15 1003.89 1003.83 1004.34 1005.06 1005.55 1006.05 1006.48 1006.96 1007.34 1007.57 1007.43 1007.62 1007.74 1008.21 1008.84 1009.40 1009.84 1010.39 1010.50 1010.87 1011.17 1011.60 1012.03 1012.38 1012.71 1013.24 1013.37 1013.65 1014.12 1014.26 1014.75
Wind_Speed
13 11 11 13 15 14 15 13 17 16 17 16 12 11 13 12 13 14 13 11 8 9 11 12 13 13 13 14 15 15 14 15 15 13 12 11 10 10 10 11 10 8 6 5
15 13 14 18 17 17 18 17 19 19 20 9 4 8 9 11 11 12 12 13 14 12 11 14 14 13 14 14 14 14 15 15 13 12 12 11 9 9 10 10 8 6 6 2
16 15 14 17 18 22 20 20 18 16 11 9 9 7 8 9 10 12 14 15 14 13 11 10 12 12 13 13 12 13 14 14 13 13 12 11 9 10 10 10 9 8 5 4
14 13 21 13 12 14 16 15 12 7 7 5 7 10 2 8 12 13 15 16 16 14 11 9 9 9 11 12 13 13 13 13 14 14 13 11 11 11 11 10 9 7 6 5
12 13 16 19 10 9 8 9 5 5 2 6 9 10 9 11 12 13 16 16 15 15 11 8 7 6 10 11 11 12 13 12 13 14 13 12 12 11 10 8 8 7 6 5
12 14 16 3 8 6 6 14 11 5 4 7 10 9 8 17 16 15 15 16 17 16 14 9 7 6 9 11 11 12 12 10 10 10 11 12 11 10 8 9 8 7 7 7
14 15 13 4 4 2 12 4 8 7 8 9 8 9 15 15 15 14 15 17 17 16 13 11 9 6 9 10 10 10 11 11 11 10 8 9 9 9 10 9 9 9 7 6
13 16 19 9 3 9 9 8 10 9 7 8 9 12 13 13 12 14 15 16 15 14 14 11 9 9 9 10 9 8 10 14 9 12 10 7 11 9 10 11 11 8 6 4
9 4 7 4 6 6 10 9 7 11 12 11 12 13 13 13 14 13 14 14 14 13 15 13 9 8 9 5 7 10 12 14 13 12 14 9 9 9 7 8 10 9 4 3
14 12 15 9 11 12 10 10 14 15 15 14 13 14 15 14 13 13 13 14 13 15 14 13 11 5 9 7 8 9 13 14 15 12 15 10 8 8 6 5 4 5 6 3
15 17 19 20 17 15 16 17 17 17 20 17 16 17 16 15 14 12 12 13 12 12 14 14 11 7 4 8 13 11 11 13 14 9 12 15 9 8 10 10 9 4 6 4
11 13 13 15 18 18 20 21 20 20 19 19 19 19 19 16 14 13 13 13 13 13 12 13 11 9 4 6 10 11 12 10 10 9 12 12 13 13 18 15 15 16 12 11
12 15 18 19 20 22 23 19 15 16 17 18 19 18 20 18 16 15 13 15 15 14 13 10 10 10 9 6 9 14 13 12 10 12 10 12 9 10 16 6 16 15 11 13
12 13 17 19 17 18 19 19 20 20 19 18 19 19 18 17 16 16 15 15 14 13 12 10 10 11 10 9 9 13 14 14 12 11 10 11 10 8 9 12 10 8 8 9
13 13 15 18 19 20 21 19 20 19 18 18 17 17 16 16 15 14 14 14 12 11 10 11 11 10 8 8 11 14 12 10 10 9 7 7 9 8 7 8 8 8 9 6
17 19 19 20 20 20 20 20 20 19 18 18 19 17 15 14 12 12 12 11 9 10 10 9 10 8 4 6 6 10 11 15 10 8 10 10 9 8 8 7 7 5 6 5
18 19 16 16 18 18 21 15 19 20 18 20 19 19 16 15 13 12 12 8 10 10 8 9 7 5 6 4 5 6 7 10 17 10 10 9 8 8 7 8 7 7 5 8
17 16 18 18 17 17 17 19 22 21 17 20 20 18 16 16 14 10 9 7 4 5 5 6 6 4 8 8 5 6 6 7 8 8 9 8 7 8 7 5 5 5 10 6
15 18 18 20 19 16 17 18 20 21 19 17 19 19 16 14 13 10 8 8 9 8 7 7 8 3 4 9 5 8 8 9 10 10 10 11 9 7 5 5 6 6 5 9
20 20 16 16 17 18 19 18 20 17 19 14 17 16 14 13 12 11 8 11 11 8 10 11 9 9 10 8 9 6 9 11 11 9 8 8 7 8 7 7 8 7 8 6
15 16 15 14 15 19 16 14 12 11 14 15 14 13 12 12 12 9 8 7 4 9 11 14 11 6 6 8 9 7 4 8 9 9 9 9 9 8 7 7 8 8 7 5
14 14 14 16 18 16 12 9 5 7 7 10 13 13 11 11 11 8 8 9 7 16 10 9 8 14 8 11 9 9 9 9 8 7 8 8 8 8 7 8 7 6 6 5
12 12 14 19 13 14 10 9 10 7 7 8 10 11 11 8 6 8 6 7 9 11 9 9 22 16 14 8 9 11 11 9 9 9 8 7 8 9 9 8 9 7 7 5
9 11 11 13 13 13 16 16 13 13 11 10 9 9 4 3 5 5 9 11 18 16 13 12 18 19 11 5 9 10 10 10 9 10 9 8 9 8 9 8 8 7 7 6
7 8 9 12 10 8 11 13 11 11 14 10 12 7 4 6 6 8 10 10 14 9 12 20 22 19 12 10 10 11 10 10 10 9 9 9 9 10 9 7 7 8 7 6
7 6 6 7 7 6 7 8 8 7 8 8 8 8 7 9 12 12 10 13 12 12 11 13 13 12 12 12 12 11 11 11 10 10 10 9 9 9 9 9 8 7 6 5
6 7 8 7 8 8 5 6 7 8 8 8 10 10 13 13 12 10 11 9 11 11 11 11 10 13 14 13 12 12 11 9 10 10 9 9 7 8 8 7 7 6 5 5
Wind_Direction
269 284 281 277 278 271 260 259 272 292 297 301 329 322 323 314 330 331 334 331 321 260 231 221 209 201 201 209 207 199 199 204 206 210 209 210 213 216 212 208 213 218 221 226
264 266 268 266 263 262 262 266 272 274 277 321 335 311 317 321 331 338 342 340 336 319 254 231 226 210 204 202 203 200 199 205 203 199 197 204 204 206 201 197 192 184 199 223
263 270 275 266 258 250 253 262 274 279 315 349 334 344 325 350 354 357 354 352 342 324 302 258 236 226 222 208 201 195 198 203 199 196 197 203 201 192 188 182 176 177 124 139
269 277 255 268 306 316 289 283 295 285 272 321 322 310 157 31 7 359 356 349 343 331 317 288 235 231 222 203 195 200 199 195 195 196 199 191 183 178 178 175 172 149 144 128
251 242 257 268 254 240 273 268 181 273 245 332 341 301 181 32 3 349 346 342 344 343 320 306 278 238 213 200 191 196 200 200 189 186 181 176 175 171 173 149 140 133 130 121
239 251 262 67 48 24 279 256 35 359 321 324 330 274 90 349 342 339 338 338 340 344 341 329 302 251 225 203 196 195 181 186 181 183 171 170 165 152 141 137 138 133 124 96
232 252 254 3 18 329 252 33 347 341 327 319 316 330 318 321 325 325 327 331 335 333 335 339 316 265 246 229 201 177 176 155 162 153 166 144 122 136 130 145 127 102 112 100
236 260 260 37 219 267 10 333 326 320 317 316 316 310 311 320 325 329 331 330 331 330 331 333 334 300 260 237 200 172 167 137 150 133 124 125 125 139 146 129 110 119 121 127
301 285 77 41 11 353 322 310 331 325 314 312 308 308 310 312 317 321 329 329 327 327 323 319 339 297 276 244 145 176 144 139 140 120 120 137 140 128 138 159 148 151 141 184
278 258 280 333 302 300 312 318 309 298 294 291 292 301 304 302 305 311 313 319 321 321 315 311 319 290 265 160 149 157 144 134 131 128 115 132 152 147 144 162 162 134 145 151
275 282 290 282 292 309 311 297 293 294 291 287 285 285 289 289 290 291 299 304 309 309 309 308 311 292 271 176 162 160 154 146 137 120 121 102 61 55 92 53 6 105 77 59
277 302 295 287 291 296 292 297 294 287 281 282 281 282 281 277 278 284 289 298 300 299 296 299 303 287 252 199 174 148 152 152 145 145 139 139 142 113 79 99 77 74 57 44
303 299 292 297 291 285 280 279 290 297 296 293 284 281 277 274 274 278 278 279 282 290 290 288 277 262 222 225 180 161 159 159 157 156 153 151 155 156 131 119 110 99 88 77
312 304 286 284 291 307 303 296 286 281 283 282 280 283 280 273 270 269 269 275 282 283 284 280 254 238 219 217 184 169 162 154 157 161 162 164 156 157 146 141 137 131 98 104
289 292 287 285 284 279 279 281 282 279 277 280 282 280 279 273 272 270 271 272 274 276 273 267 261 240 210 218 196 170 152 155 151 155 156 148 139 144 131 124 138 134 135 155
299 295 296 302 289 286 293 298 293 286 276 270 274 276 278 273 271 271 269 267 263 263 261 239 243 240 201 207 215 173 166 135 126 142 151 146 147 138 129 133 121 142 118 137
310 303 308 297 304 297 288 294 290 286 286 282 271 273 273 273 270 267 267 267 264 272 258 222 208 181 174 190 182 141 131 136 132 150 159 148 142 134 139 132 144 145 143 70
318 312 309 297 287 284 284 281 281 280 272 271 273 263 266 264 261 269 268 250 202 190 170 166 154 168 167 173 182 157 136 135 143 128 130 136 124 120 133 138 137 152 115 128
322 307 294 299 297 289 281 277 277 277 266 260 263 257 257 258 260 256 251 220 196 193 178 162 150 87 77 77 77 111 101 112 122 126 117 122 114 116 118 128 128 109 119 99
327 321 306 296 292 290 290 284 277 262 263 253 252 249 248 249 242 240 236 216 214 210 177 153 131 114 109 107 97 105 120 118 114 118 111 107 128 137 132 113 122 110 87 101
315 307 308 310 305 300 293 281 284 255 244 239 234 237 240 237 237 222 199 195 164 147 151 134 123 104 104 122 92 72 80 124 120 120 137 127 135 146 129 114 107 116 121 115
336 322 324 322 315 312 321 335 286 298 279 261 247 247 243 235 224 206 213 154 133 130 122 109 107 115 139 156 127 119 118 119 123 125 129 137 126 113 108 114 118 119 129 141
331 332 324 320 347 351 349 1 359 23 8 335 300 275 255 242 169 136 134 139 132 125 114 122 117 97 91 102 115 111 117 127 128 124 122 133 125 129 133 137 130 144 138 132
332 338 326 328 335 346 357 356 2 13 19 1 350 314 199 130 97 78 115 120 130 126 117 131 115 115 98 117 114 118 134 129 118 114 114 121 124 121 121 137 130 140 124 182
319 317 329 341 346 342 341 338 343 353 351 360 5 8 46 122 110 116 113 103 93 97 110 130 142 161 158 143 134 130 127 125 127 128 129 132 142 133 132 132 140 139 154 148
330 344 333 351 344 347 346 339 347 355 351 2 33 34 56 92 91 98 101 108 101 112 125 145 153 156 138 140 135 136 128 125 142 132 139 142 135 134 141 138 145 157 146 144
9 350 355 18 21 4 353 6 3 17 6 12 28 48 66 69 75 82 89 116 125 126 143 149 149 147 138 144 143 136 141 150 134 142 136 133 138 137 145 145 144 156 158 171